www.pogodaiklimat.ru

Погода и климат >> Архив погоды >> Парагвай >> Парагуари


ПОГОДА в Парагуари

  • Прогноз погоды в Парагуари
  • Монитор погоды в Парагуари

АРХИВ ПОГОДЫ в Парагуари

Время (UTC), дата Ветер
(напр.,м/с)
 
Видим.   Явления Облачность Т
(С)
Тd
(С)
f
(%)
Тe
(С)
Тes
(С)
Комфортность P
(гПа)
Po
(гПа)
Тmin
(С)
Tmax
(С)
R
(мм)
R24
(мм)
S
(см)
12 13.02 Ю 1 20 км ясно +20.8 +16.3 75 +25 +34 комфорт 1017.0 1003.4 +17.0 3
15 13.02 Ю 2 20 км ясно +24.6 +15.2 56 +28 +48 душно 1017.2 1003.8
18 13.02 Ю 1 20 км ясно +30.4 +19.3 52 +36 +54 опасность
солнечного
удара
1015.3 1002.1
21 13.02 штиль 0 20 км ясно +30.0 +19.4 53 +36 +38 очень
душно
1013.6 1000.4
00 14.02 штиль 0 20 км ясно +28.2 +21.8 68 +36 +36 очень
душно
1013.3 1000.0 +31.0
03 14.02 штиль 0 20 км ясно +26.8 +21.3 72 +34 +34 очень
душно
1013.6 1000.3
06 14.02 штиль 0 20 км ясно +24.8 +20.8 78 +31 +31 очень
душно
1014.3 1000.9
09 14.02 штиль 0 20 км ясно +22.8 +21.4 92 +30 +30 очень
душно
1014.9 1001.4
12 14.02 штиль 0 20 км 8/0 1500 м
[Ac und]
+23.8 +21.3 86 +30 +34 очень
душно
1015.1 1001.6 +20.8
15 14.02 штиль 0 20 км 8/0 1500 м
[Ac und]
+28.2 +21.9 69 +36 +48 очень
душно
1013.4 1000.1
18 14.02 штиль 0 20 км {дождь} 10/10 450 м
[Sc]
+29.4 +23.2 69 +39 +39 очень
душно
1011.6 998.4 1
21 14.02 штиль 0 20 км 10/10 450 м
[Sc]
+27.4 +23.9 81 +38 +38 очень
душно
1009.5 996.2
00 15.02 штиль 0 20 км 10/10 450 м
[Sc]
+24.2 +20.8 81 +30 +30 очень
душно
1009.5 996.1 +29.4
03 15.02 штиль 0 20 км ясно +23.4 +21.3 88 +31 +31 очень
душно
1009.9 996.5
09 15.02 штиль 0 20 км ясно +20.8 +19.5 92 +25 +25 комфорт 1011.7 998.2
12 15.02 штиль 0 20 км ясно +23.6 +18.1 71 +28 +38 душно 1012.4 999.0 +20.8 1
15 15.02 ЮЗ 3 20 км 5/5 1200 м
[Cu hum]
+28.0 +18.7 57 +33 +41 очень
душно
1012.0 998.8
18 15.02 ЮЗ 3 20 км 6/6 1200 м
[Cu med, cong]
+30.4 +18.9 50 +36 +41 очень
душно
1010.1 997.0
21 15.02 ЮЗ 3 20 км 9/9 1200 м
[Cu Sc]
+28.0 +18.7 57 +33 +33 очень
душно
1010.0 996.8
00 16.02 штиль 0 20 км ясно +26.4 +19.0 64 +32 +32 очень
душно
1010.7 997.4 +31.0
03 16.02 штиль 0 20 км 4/0 2000 м
[Ac trans]
+24.0 +19.3 75 +29 +29 душно 1011.0 997.6
09 16.02 штиль 0 20 км 6/0 1500 м
[Ac und]
+20.8 +17.9 83 +24 +24 комфорт 1010.6 997.0
12 16.02 ЮЗ 3 20 км 10/10 600 м
[Sc]
+21.0 +17.8 82 +26 +26 душно 1011.1 997.6 +20.4
18 16.02 штиль 0 20 км 10/10 600 м
[Sc]
+25.4 +18.3 65 +30 +30 душно 1011.3 998.0
00 17.02 штиль 0 20 км 8/8 600 м
[Sc]
+24.4 +20.7 80 +30 +30 очень
душно
1010.8 997.4 +29.0
03 17.02 штиль 0 20 км 9/9 600 м
[Sc]
+23.0 +19.9 83 +30 +30 очень
душно
1011.4 998.0
09 17.02 штиль 0 20 км ясно +22.0 +20.4 91 +28 +28 душно 1010.5 997.0
12 17.02 штиль 0 20 км ясно +23.0 +18.2 74 +29 +38 очень
душно
1010.7 997.3 +20.0
15 17.02 В 3 20 км 8/8 1200 м
[Cu hum]
+27.0 +19.3 63 +33 +36 очень
душно
1011.3 998.0
18 17.02 ЮВ 2 20 км 6/6 1200 м
[Cu med, cong]
+30.0 +17.4 47 +34 +40 очень
душно
1009.7 996.6
21 17.02 штиль 0 20 км 5/5 1200 м
[Cu hum]
+30.0 +18.3 50 +35 +36 очень
душно
1008.4 995.3
00 18.02 штиль 0 20 км 4/0 1500 м
[Ac und]
+24.4 +20.7 80 +30 +30 очень
душно
1009.7 996.3 +31.0
09 18.02 штиль 0 20 км ясно +22.0 +21.5 97 +29 +29 очень
душно
1010.1 996.6
12 18.02 штиль 0 20 км ясно +23.0 +20.9 88 +30 +40 очень
душно
1010.5 997.0 +21.0
15 18.02 В 2 20 км 4/4 1200 м
[Cu hum]
+27.8 +18.8 58 +33 +45 очень
душно
1010.8 997.6
21 18.02 штиль 0 20 км 5/5 1200 м
[Cu med, cong]
+30.0 +17.4 47 +34 +35 очень
душно
1006.1 993.0
00 19.02 штиль 0 20 км 4/0 2000 м
[Ac und]
+27.8 +18.8 58 +33 +33 очень
душно
1007.1 994.0 +33.0
03 19.02 штиль 0 20 км ясно +25.0 +20.4 76 +31 +31 очень
душно
1009.3 995.0
12 19.02 штиль 0 20 км ясно +25.0 +20.4 76 +31 +40 очень
душно
1008.3 995.0 +21.0
15 19.02 штиль 0 20 км 4/4 1200 м
[Cu hum]
+31.0 +20.5 54 +38 +54 опасность
солнечного
удара
1008.9 995.8
18 19.02 СВ 2 20 км 5/5 1200 м
[Cu med, cong]
+33.0 +21.1 50 +41 +48 опасность
перегрева
1006.4 993.5
21 19.02 В 2 20 км гроза без осадков 6/3 1200 м
[Cb cap Ac As]
+31.0 +22.2 60 +40 +41 очень
душно
1005.3 992.3
00 20.02 штиль 0 20 км ясно +28.6 +21.8 67 +37 +37 очень
душно
1007.1 994.0 +35.0
03 20.02 штиль 0 20 км ясно +27.0 +22.8 78 +36 +36 очень
душно
1008.8 995.5
06 20.02 штиль 0 20 км ясно +24.4 +20.7 80 +30 +30 очень
душно
1008.4 995.0

 

Местоположение метеостанции Парагуари (Парагвай): широта -25.63 долгота -57.13 высота над уровнем моря 116 м.

В архиве по умолчанию представлена погода в Парагуари за последнюю неделю. Архивные данные за месяц целиком и за предыдущие месяцы, начиная с января 2011 года, Вы можете получить, выбрав интересующий диапазон дат из раскрывающегося списка и нажав кнопку "Ввод!".


*Определитесь, кто Вы:
робот инопланетянин человек

Внимание! Время в таблицах - всемирное. Для получения местного времени необходимо прибавить поправку, которая равна -4 ч.

Смотрите также архив погоды в соседних городах и на ближайших метеорологических станциях:

Погода в Асунсьоне (Парагвай) (57 км)
Погода в Куйкуйо (Парагвай) (67 км)
Погода в Вильяррике (Парагвай) (71 км)
Погода в Коронель-Овьедо (Парагвай) (80 км)
Погода в Каасапе (Парагвай) (99 км)
Погода в Сан Хуан Батистута (Парагвай) (115 км)
Погода в Формосе (Аргентина) (127 км)
Погода в Сан Эстанислао (Парагвай) (130 км)
Погода в Сан-Педро (Парагвай) (175 км)
Погода в Пиларе (Парагвай) (180 км)

Пояснения к столбцам:

Ветер - указаны скорость ветра в м/с - средняя за 10 мин, порывы в срок и между сроками (в фигурных скобках) и направление, откуда дует ветер: С - северный, СВ - северо-восточный, В - восточный, ЮВ - юго-восточный, Ю - южный, ЮЗ - юго-западный, З - западный, СЗ - северо-западный.
Видимость - горизонтальная дальность видимости в метрах или километрах. При видимости от 1 до 10 км при отсутствии осадков обычно наблюдается дымка, при ухудшении видимости до 1 км и менее - туман. В сухую погоду видимость может ухудшаться дымом, пылью или мглою.
Явления - указаны атмосферные явления, наблюдавшиеся в срок или в последний час перед сроком; фигурными скобками обозначены явления, наблюдавшиеся между сроками (за 1-3 часа до срока); квадратными скобками обозначены град или гололедные отложения с указанием их диаметра в мм.
Облачность - указаны через наклонную черту общая и нижняя облачность в баллах и высота нижней границы облаков в метрах; квадратными скобками обозначены формы облаков: Ci - перистые, Cs - перисто-слоистые, Cc - перисто-кучевые, Ac - высококучевые, As - высокослоистые, Sc - слоисто-кучевые, Ns - слоисто-дождевые, Cu - кучевые, Cb - кучево-дождевые. Подробнее классификацию облаков см. в Атласе облаков (PDF).
T - Температура воздуха - температура, измеренная на высоте 2 м над землей.
Td - Температура точки росы - температура, при понижении до которой содержащийся в воздухе водяной пар достигнет насыщения.
f - Относительная влажность воздуха - влажноcть воздуха, измеренная на высоте 2 м над землей.
Te - Эффективная температура - температура, которую ощущает одетый по сезону человек в тени. Характеристика душности погоды. При расчете учитывается влияние влажности воздуха и скорости ветра на теплоощущения человека.
Tes - Эффективная температура на солнце - температура, которую ощущает человек, с поправкой на солнечный нагрев. Характеристика знойности погоды. Зависит от высоты солнца над горизонтом, облачности и скорости ветра. Ночью, в пасмурную погоду, а также при ветре 12 м/с и более поправка равна нулю.
P - Атмосферное давление - приведенное к уровню моря атмосферное давление.
Po - Атмосферное давление - измеренное на уровне метеостанции атмосферное давление.
Tmin - Минимальная температура - минимум температуры воздуха на высоте 2 м над землей.
Tmax - Максимальная температура - максимум температуры воздуха на высоте 2 м над землей.
R - Количество осадков - Количество выпавших осадков за период времени, мм. При наведении курсора мыши на число - период времени, за который выпало указанное количество осадков.
R24 - Количество осадков - Количество выпавших осадков за 24 часа, мм.
S - Снежный покров - Высота снежного покрова, см. При наведении курсора мыши на число - состояние снежного покрова и степень покрытия местности в баллах.